Home > Weather > Tampere > Past weeks

Flag for Finland Past Weather in Tampere, Finland — Yesterday and Last 2 Weeks

Now
55 °F

Cloudy.


Feels Like: 52 °F
Forecast: 48 / 57 °F
Wind: 13 mph from Northeast

Location: Tampere / Pirkkala

Current Time: May 26, 2016 at 5:35:12 PM

Latest Report: May 26, 2016 at 5:20 PM


Visibility: N/A

Pressure: 29.92 "Hg

Humidity: 88%

Dew Point: 52 °F

Location of TampereLocation

Past Weather in Tampere — Graph

°F

Tampere Temperature Yesterday

Maximum temperature yesterday: 70 °F (at 4:20 PM)
Minimum temperature yesterday: 54 °F (at 3:50 AM)
Average temperature yesterday: 62 °F

High & Low Weather Summary for the Past Weeks

 TemperatureHumidityPressure
High75 °F (May 24, 4:20 PM)100% (May 12, 4:20 AM)30.09 "Hg (May 12, 4:20 AM)
Low32 °F (May 12, 4:20 AM)24% (May 11, 6:50 PM)29.56 "Hg (May 14, 9:20 AM)
Average55 °F70%29.84 "Hg
* Reported May 11 4:20 PM — May 26 4:20 PM, Tampere, Weather by CustomWeather, © 2016

Note: Actual official high and low records may vary slightly from our data, if they occured in-between our weather recording intervals... More about our weather records

Advertising

Tampere Weather History for the Previous 24 Hours

Scroll right to see more
 ConditionsComfort  
Time TempWeatherWind HumidityBarometerVisibility
4:20 PM
Thu, May 26
55 °FLight rain. Overcast.12 mph94%29.89 "HgN/A
3:50 PM57 °FCloudy.14 mph82%29.89 "HgN/A
3:20 PM57 °FBroken clouds.15 mph88%29.86 "HgN/A
2:50 PM57 °FLight rain. Partly sunny.12 mph88%29.86 "HgN/A
2:20 PM57 °FLight rain. Partly sunny.10 mph94%29.86 "HgN/A
12:20 PM63 °FLight rain. Broken clouds.14 mph77%29.83 "HgN/A
11:50 AM61 °FPartly sunny.12 mph88%29.80 "HgN/A
11:20 AM61 °FLight rain. Partly sunny.15 mph83%29.80 "HgN/A
10:50 AM63 °FPartly sunny.15 mph77%29.80 "HgN/A
10:20 AM63 °FPartly sunny.14 mph77%29.80 "HgN/A
9:50 AM61 °FBroken clouds.14 mph83%29.80 "HgN/A
9:20 AM61 °FPartly sunny.14 mph83%29.80 "HgN/A
8:50 AM59 °FOvercast.13 mph88%29.77 "HgN/A
8:20 AM59 °FOvercast.10 mph88%29.77 "HgN/A
7:50 AM59 °FPartly sunny.9 mph88%29.77 "HgN/A
7:20 AM59 °FMostly cloudy.10 mph88%29.77 "HgN/A
6:50 AM59 °FMostly cloudy.9 mph88%29.77 "HgN/A
6:20 AM59 °FPartly sunny.9 mph88%29.77 "HgN/A
5:50 AM57 °FMostly cloudy.7 mph94%29.77 "HgN/A
5:20 AM57 °FMostly cloudy.5 mph88%29.77 "HgN/A
4:50 AM57 °FMostly cloudy.6 mph88%29.77 "HgN/A
4:20 AM57 °FOvercast.6 mph88%29.77 "HgN/A
3:50 AM57 °FPartly cloudy.6 mph88%29.77 "HgN/A
3:20 AM57 °FMostly cloudy.3 mph88%29.77 "HgN/A
2:50 AM57 °FPartly cloudy.8 mph88%29.80 "HgN/A
2:20 AM57 °FMostly cloudy.7 mph88%29.80 "HgN/A
1:50 AM57 °FMostly cloudy.6 mph88%29.80 "HgN/A
1:20 AM59 °FOvercast.7 mph82%29.80 "HgN/A
12:50 AM59 °FMostly cloudy.5 mph88%29.80 "HgN/A
12:20 AM61 °FOvercast.5 mph83%29.80 "HgN/A
11:50 PM
Wed, May 25
61 °FMostly cloudy.8 mph83%29.80 "HgN/A
11:20 PM61 °FSunny.6 mph83%29.80 "Hg10 mi
10:50 PM61 °FSunny.6 mph83%29.80 "Hg10 mi
10:20 PM63 °FSunny.6 mph77%29.80 "Hg10 mi
9:50 PM63 °FScattered showers. Partly sunny.6 mph73%29.83 "HgN/A
9:20 PM64 °FScattered showers. Partly sunny.3 mph73%29.83 "HgN/A
8:50 PM64 °FScattered showers. Partly sunny.5 mph73%29.83 "HgN/A
8:20 PM66 °FScattered showers. Partly sunny.8 mph68%29.80 "HgN/A
7:50 PM66 °FSunny.9 mph68%29.80 "Hg10 mi
7:20 PM66 °FSunny.7 mph64%29.83 "Hg10 mi
6:50 PM68 °FSunny.9 mph60%29.83 "Hg10 mi
6:20 PM68 °FSunny.12 mph60%29.83 "Hg10 mi
5:50 PM70 °FSunny.9 mph57%29.83 "Hg10 mi
5:20 PM68 °FSunny.8 mph60%29.86 "Hg10 mi
Weather by CustomWeather, © 2016

See weather overviewHow to use our weather pages